Regional Weather Roundup
Issued by NWS Jackson, KY

Home | Current Version | Previous Version | Text Only | Print | Product List | Glossary Off
Versions: 1 2 3 4 5 6 7 8 9 10 11 12 13 14 15 16 17 18 19 20 21 22 23 24 25 26 27

000
ASUS43 KJKL 252010
RWRJKL

EAST KENTUCKY HOURLY WEATHER ROUNDUP
NATIONAL WEATHER SERVICE JACKSON KY
400 PM EDT THU MAY 25 2017

NOTE: "FAIR" INDICATES FEW OR NO CLOUDS BELOW 12,000 FEET WITH
NO SIGNIFICANT WEATHER AND/OR OBSTRUCTIONS TO VISIBILITY.

* THESE REPORTS ARE NOT UNDER NWS QUALITY CONTROL AND MAY NOT
  REPORT WEATHER SUCH AS PRECIPITATION AND FOG.

KYZ079-080-083-085-087-088-110-112-115-119-120-252100
...EASTERN KENTUCKY...

CITY           SKY/WX    TMP DP  RH WIND       PRES   REMARKS
JACKSON        LGT RAIN  57  56  96 W3        29.59R FOG
LONDON         LGT RAIN  57  54  89 W17G29    29.66R FOG
SOMERSET*      CLOUDY    59  55  88 W15G22    29.69R
MONTICELLO*    CLOUDY    66  56  70 W24G33    29.70S
MIDDLESBORO*   DRIZZLE   60  56  87 SW9G17    29.68R
HARLAN APT*    CLOUDY    54  52  94 SW6       29.66R
PIKE CO APT*   DRIZZLE   54  54 100 SW10G17   29.57R
BIG SANDY APT* DRIZZLE   57  57 100 W10G20    29.55S
MOREHEAD APT*  CLOUDY    59  55  88 W8G20     29.57R
$$

KYZ035-036-041-042-044-050-067-078-099-252100
...CENTRAL KENTUCKY...

CITY           SKY/WX    TMP DP  RH WIND       PRES   REMARKS
DANVILLE*      HVY RAIN  57  55  94 W14G23    29.66R
LEXINGTON      CLOUDY    59  55  87 W18G29    29.62R
FRANKFORT      CLOUDY    60  55  83 W12G21    29.62R
LOUISVILLE     PTSUNNY   67  56  67 NW17G26   29.64R
LEBANON*       CLOUDY    63  57  82 W15       29.67R
GLASGOW*       PTSUNNY   69  55  59 W17G25    29.70S
BOWLING GREEN  PTSUNNY   73  57  57 W15G24    29.72R
$$

KYZ091>093-OHZ055-061-077-WVZ005-015-034-035-042-252100
...SOUTHERN OHIO/WEST VIRGINIA...

CITY           SKY/WX    TMP DP  RH WIND       PRES   REMARKS
COVINGTON      CLOUDY    61  58  90 NW20G26   29.56R
COLUMBUS       CLOUDY    67  58  72 SW8       29.46S
DAYTON         PTSUNNY   68  59  73 NW18      29.51R
WILMINGTON     LGT RAIN  67  60  78 NW8       29.48R
HUNTINGTON     CLOUDY    60  57  89 W7        29.50R
CHARLESTON     LGT RAIN  58  54  86 SE7       29.51F
PINEVILLE*     HVY RAIN  55  53  92 MISG      29.61F
BECKLEY        RAIN      53  50  89 SW12G20   29.58S
BLUEFIELD      LGT RAIN  51  49  92 W16G23    29.61F
$$

VAZ002-007-008-TNZ017-027-036-066-071-252100
...SOUTHWEST VIRGINIA/EAST TENNESSEE...

CITY           SKY/WX    TMP DP  RH WIND       PRES   REMARKS
WISE*          LGT RAIN  54  54 100 SW16G22   29.63S
JONESVILLE*    LGT RAIN  55  55 100 SW14G20   29.68R VSB 1
ABINGDON*      LGT RAIN  55  55  97 W17G24    29.65S
BRISTOL        CLOUDY    57  54  89 SW18G25   29.66S
MORRISTOWN*    CLOUDY    61  54  77 W8G17     29.68S
LAFOLLETTE*    CLOUDY    66  52  59 VRB5G25   29.71S
OAK RIDGE      CLOUDY    66  49  54 W9        29.72R
CROSSVILLE     CLOUDY    63  51  65 W17G25    29.76R
NASHVILLE      PTSUNNY   74  52  46 W13G23    29.76R
$$

...KEY TO REMARKS...
VSB - VISIBILITY IN MILES
WCI - WIND CHILL INDEX
HX  - HEAT INDEX

$$




USA.gov is the U.S. government's official web portal to all federal, state and local government web resources and services.